Regional Weather Roundup
Issued by NWS Raleigh/Durham, NC

Home | Current Version | Previous Version | Text Only | Print | Product List | Glossary On
Versions: 1 2 3 4 5 6 7 8 9 10 11 12 13 14 15 16 17 18 19 20 21 22 23 24 25 26 27
000
ASUS42 KRAH 310110
RWRRAH
NORTH CAROLINA WEATHER ROUNDUP
NATIONAL WEATHER SERVICE RALEIGH NC
900 PM EDT SAT JUL 30 2016

NOTE: "FAIR" INDICATES FEW OR NO CLOUDS BELOW 12,000 FEET WITH NO
SIGNIFICANT WEATHER AND/OR OBSTRUCTIONS TO VISIBILITY.

NCZ001-053-055-056-065-067-310200-
WESTERN NORTH CAROLINA

CITY           SKY/WX    TMP DP  RH WIND       PRES   REMARKS
ASHEVILLE      CLEAR     73  68  84 CALM      30.08S
JEFFERSON      CLEAR     74  63  68 CALM      30.12S
MORGANTON      CLOUDY    76  68  77 CALM      30.06R
HICKORY        CLOUDY    78  72  81 CALM      30.01R
RUTHERFORDTON    N/A     73  73 100 CALM      30.02S
MOUNT AIRY     CLOUDY    77  74  92 CALM      30.02R
BOONE          CLOUDY    74  63  68 CALM      30.14R
$$

NCZ021-022-025-041-071-084-088-310200-
CENTRAL NORTH CAROLINA

CITY           SKY/WX    TMP DP  RH WIND       PRES   REMARKS
CHARLOTTE      CLOUDY    82  71  69 W5        29.98S
GREENSBORO     CLOUDY    84  70  62 CALM      29.97R
WINSTON-SALEM  CLOUDY    82  71  69 CALM      29.99R
RALEIGH-DURHAM MOCLDY    78  75  90 W5        29.96R
FORT BRAGG     LGT RAIN  79  75  89 SW7       29.95F
FAYETTEVILLE   LGT RAIN  80  73  79 W5        29.96S
BURLINGTON     PTCLDY    83  70  64 CALM      29.95R
LAURINBURG     CLOUDY    79  75  87 CALM      29.97F
$$

NCZ011-015-027-028-043-044-047-080-103-310200-
NORTHEASTERN NORTH CAROLINA

CITY           SKY/WX    TMP DP  RH WIND       PRES   REMARKS
ROCKY MT-WILSO LGT RAIN  77  76  96 NE6       29.95F
GREENVILLE     PTCLDY    79  75  89 E6        29.97F
WASHINGTON     CLOUDY    75  74  96 N3        29.96S
ELIZABETH CITY CLOUDY    75  73  93 S3        29.95R
MANTEO         CLOUDY    80  79  98 S12       29.96R
CAPE HATTERAS  CLOUDY    82  81  96 S10       29.97S HX  95
$$

NCZ078-087-090-091-093-098-101-310200-
SOUTHEASTERN NORTH CAROLINA

CITY           SKY/WX    TMP DP  RH WIND       PRES   REMARKS
LUMBERTON      LGT RAIN  78  75  90 SE5       29.98S
GOLDSBORO      CLOUDY    85  76  74 W8        29.94R
KINSTON        CLOUDY    81  77  89 SE3       29.94F
KENANSVILLE    NOT AVBL
NEW BERN       CLOUDY    83  77  82 S7        29.96R
CHERRY POINT   MOCLDY    83  78  85 S8        29.97R
BEAUFORT       CLOUDY    84  82  94 SW12      29.97R HX 100
JACKSONVILLE   PTCLDY    84  75  74 S7        29.95R
WILMINGTON     PTCLDY    85  74  69 SW7       29.97R
$$





USA.gov is the U.S. government's official web portal to all federal, state and local government web resources and services.